Date,TemperatureHighF,TemperatureAvgF,TemperatureLowF,DewpointHighF,DewpointAvgF,DewpointLowF,HumidityHigh,HumidityAvg,HumidityLow,PressureMaxIn,PressureMinIn,WindSpeedMaxMPH,WindSpeedAvgMPH,GustSpeedMaxMPH,PrecipitationSumIn
2013-2-8,34.1,33.5,33.1,32.8,32.2,31.8,96,95,95,29.93,29.65,41,15,41,0.04
2013-2-9,23.3,23.3,23.3,21.8,21.8,21.8,94,94,94,29.72,29.72,12,10,12,0.00
2013-2-12,48.2,41.7,33.6,36.7,30.8,26.5,92,66,52,29.94,29.74,30,9,30,0.01
2013-2-13,49.0,36.0,31.0,32.6,28.2,23.6,89,74,45,29.93,29.69,18,6,18,0.00
2013-2-14,49.6,37.7,32.1,38.0,31.2,24.5,92,78,44,30.06,29.72,17,4,17,0.14
2013-2-15,44.4,38.6,31.8,39.2,35.7,30.0,95,89,80,30.09,29.98,23,8,23,0.00
2013-2-16,40.6,35.5,32.3,35.9,33.1,30.6,95,91,78,29.99,29.67,17,5,17,0.03
2013-2-17,33.8,25.5,20.1,32.0,21.8,11.5,94,86,69,29.71,29.36,39,13,39,0.00
2013-2-18,35.1,25.9,17.8,15.3,9.1,4.2,72,50,31,30.21,29.71,34,12,34,0.00
2013-2-19,45.7,37.4,26.4,44.4,31.2,8.9,96,79,47,30.22,29.62,25,9,25,0.60
2013-2-20,43.7,36.4,28.8,42.6,25.6,12.6,96,67,42,29.81,29.60,31,11,31,0.01
2013-3-10,26.3,26.3,26.3,14.3,14.3,14.3,60,60,60,29.88,29.88,6,6,0,0.00
2013-3-11,26.3,26.3,26.3,14.3,14.3,14.3,60,60,60,29.88,29.88,6,6,0,0.00
2013-3-12,26.3,26.3,26.3,14.3,14.3,14.3,60,60,60,29.88,29.88,6,6,0,0.00
2013-3-13,26.3,26.3,26.3,14.3,14.3,14.3,60,60,60,29.88,29.88,6,6,0,0.00
2013-3-14,26.3,26.3,26.3,14.3,14.3,14.3,60,60,60,29.88,29.88,6,6,0,0.00
2013-3-16,37.2,35.9,35.4,29.6,27.2,22.2,75,70,57,29.89,29.84,5,3,6,0.00
2013-3-17,46.6,38.6,32.0,29.5,23.8,16.1,80,57,33,30.33,29.89,10,5,15,0.00
2013-3-18,40.1,32.4,25.0,27.4,19.5,9.5,74,59,43,30.49,30.27,14,6,17,0.00
2013-3-19,42.7,36.8,31.8,41.6,35.2,27.5,96,94,74,30.27,29.53,14,9,19,0.51
2013-3-20,44.1,36.4,30.4,33.0,25.7,20.0,93,67,42,29.86,29.70,17,9,24,0.00
2013-3-21,40.5,35.7,32.9,32.1,29.8,25.9,93,79,60,29.87,29.63,8,4,13,0.00
2013-3-22,43.7,36.8,30.6,32.0,27.4,21.7,93,70,45,29.79,29.63,13,6,17,0.36
2013-3-23,46.9,38.3,31.0,28.0,24.1,22.0,75,57,40,29.82,29.68,17,10,29,0.00
2013-3-24,54.2,39.9,32.9,33.5,27.6,21.9,82,62,39,29.87,29.77,14,7,16,0.00
2013-3-25,45.1,39.8,34.8,36.0,32.5,29.1,90,76,56,29.80,29.49,18,8,24,0.01
2013-3-26,54.8,43.8,36.1,36.0,31.2,25.8,89,63,38,29.81,29.50,11,6,16,0.00
2013-3-27,57.4,46.3,35.4,35.9,30.0,25.8,74,55,31,29.89,29.77,8,4,12,0.00
2013-3-28,50.2,43.8,39.7,39.8,35.1,28.7,90,73,48,30.06,29.88,9,5,13,0.02
2013-3-29,62.3,47.5,39.8,41.4,37.3,33.7,86,69,40,30.07,30.01,16,5,17,0.00
2013-3-30,59.5,46.3,37.4,39.0,36.4,31.8,86,69,40,30.13,30.06,16,6,17,0.00
2013-3-31,50.2,42.5,35.2,41.0,36.8,31.4,90,80,53,30.17,30.05,16,6,19,0.00